SCP
1 2 0 0 0 0 0 0 0 0 0 0 0 0 0 0 0 1 0 0 0 0 0 0 0 0 0 0 0 0 0 0 0 0 0 0 0 0
1 1 2 0 0 0 0 0 0 0 0 0 0 0 0 0 0 0 0 0 0 0 0 0 0 0 0 0 0 0 0 0 0 0 0 0 0 0
2 2 1 2 1 0 0 0 0 0 0 0 0 0 0 1 0 1 1 1 0 -0 0 0 0 0 0 0 0 0 0 0 0 0 0 0 0 0
2 2 2 2 2 1 1 0 0 0 0 0 0 0 0 0 0 0 1 0 0 0 0 0 0 0 0 0 0 0 0 0 0 0 0 0 0 0
2 2 2 2 2 2 2 1 1 0 0 0 0 0 0 0 0 0 0 1 0 0 0 0 0 0 0 0 0 0 0 0 0 0 0 0 0 0
2 2 2 2 2 2 1 2 1 1 0 0 0 0 0 0 0 0 0 0 0 0 0 0 0 0 0 0 0 0 0 0 0 0 0 0 0 0
0 1 1 2 1 1 2 1 1 1 1 0 0 0 0 0 0 0 0 0 0 1 0 1 0 0 0 0 0 0 0 0 0 0 0 0 0 0
0 0 0 0 0 0 0 0 0 1 1 1 0 0 0 0 0 0 0 0 0 1 1 0 0 0 0 0 0 0 0 0 0 0 0 0 0 0
0 0 0 0 0 0 0 0 0 0 0 0 0 0 0 0 0 0 0 0 0 0 1 1 1 0 0 0 0 0 0 0 0 0 0 0 0 0
0 0 0 0 0 0 0 0 0 0 0 0 0 0 0 0 0 0 0 0 -0 -0 0 1 0 0 0 0 0 0 0 0 0 0 0 0 0 0
0 0 0 0 0 0 0 0 0 0 0 0 0 0 0 0 0 0 0 0 0 0 1 1 0 0 0 1 0 0 0 0 0 0 0 0 0 0
0 0 0 0 0 0 0 0 0 0 0 0 0 0 0 0 0 0 0 0 0 1 0 0 1 0 0 0 0 0 0 0 0 0 0 0 0 0
0 0 0 0 0 0 0 0 0 0 0 0 0 0 0 0 0 0 0 0 0 0 0 0 0 0 0 0 0 0 0 0 0 0 0 0 0 0
0 0 0 0 0 0 0 0 0 0 0 0 0 0 0 0 0 0 0 0 0 0 0 0 0 0 0 0 0 0 0 0 0 0 0 0 0 0
0 0 0 0 0 0 0 0 0 0 0 0 0 0 0 0 0 0 0 0 0 0 -0 0 1 0 0 0 0 0 0 0 0 0 0 0 0 0
0 0 0 0 0 0 0 0 0 0 0 0 0 0 0 0 0 0 0 0 0 0 0 0 0 0 -0 0 0 0 0 0 0 0 0 0 0 0
0 0 0 0 0 0 0 0 0 0 0 0 0 0 0 0 0 0 0 0 0 0 0 0 0 0 0 0 0 0 0 0 0 0 0 0 0 0
0 0 0 -0 0 -0 0 0 0 0 0 0 0 0 0 0 0 0 0 0 0 0 -0 0 0 0 0 0 0 0 0 0 0 0 0 0 0 0
0 0 0 0 0 0 0 0 -0 0 0 0 0 0 0 0 0 0 0 0 0 -0 -0 0 0 0 0 0 0 -0 0 0 0 0 0 0 0 0
0 0 0 0 0 0 0 0 0 -0 -0 -0 -0 0 0 0 0 0 0 0 0 0 0 0 0 0 0 0 0 0 0 0 0 0 0 0 0 0
0 0 0 0 0 0 0 0 -0 -0 -0 0 0 0 0 -0 -0 -0 -0 -0 -0 0 0 0 0 0 0 -0 0 0 0 0 0 0 0 0 0 0
0 0 0 0 -0 0 0 -0 -0 -0 -0 0 0 0 -0 -0 -0 -0 0 0 0 0 0 0 0 0 0 0 0 0 0 0 0 0 0 0 0 0
0 0 0 0 0 0 0 0 0 0 0 0 0 0 -0 -0 0 -0 0 0 0 0 0 0 0 0 0 0 0 0 0 0 0 0 0 0 0 0
Wind_Speed_500mb
46 48 45 43 43 44 45 45 49 56 58 53 51 47 53 53 46 28 26 32 33 36 38 42 46 50 52 58 57 52 52 50 47 36 27 27 39 46
58 56 57 54 52 51 51 51 51 54 61 57 53 51 52 60 71 57 44 39 46 49 47 45 48 47 51 57 58 54 52 48 43 36 29 25 23 30
61 67 74 68 66 64 60 58 57 54 58 61 57 51 51 54 61 59 56 57 53 53 50 50 52 52 51 56 56 56 49 48 48 37 31 28 28 28
79 81 78 75 75 74 72 66 62 56 59 64 65 68 59 54 57 59 57 49 50 53 53 59 59 54 53 58 56 60 51 50 52 42 36 32 31 32
85 85 86 82 84 83 77 71 67 61 58 59 58 58 58 54 58 55 56 58 44 48 53 61 66 62 51 59 61 59 53 47 46 44 39 36 31 29
87 86 88 90 88 84 82 79 77 74 73 70 68 65 66 54 53 55 57 51 52 41 41 50 48 45 49 50 51 51 55 50 45 45 42 38 34 32
88 88 87 90 96 97 88 82 79 78 72 70 69 60 58 53 52 51 56 51 49 41 39 43 36 41 41 44 46 48 53 51 46 43 43 40 37 39
80 78 75 80 97 99 87 96 100 87 76 70 67 66 62 56 60 58 54 49 47 38 40 34 36 29 21 22 34 34 40 44 44 43 40 40 41 40
78 81 84 88 86 82 79 91 99 100 103 99 82 74 66 65 69 69 61 55 59 59 54 36 33 32 31 25 25 30 32 36 38 38 40 42 44 46
102 99 92 95 88 76 69 74 73 88 96 98 98 95 83 85 76 68 63 62 67 68 57 32 34 32 30 30 31 34 39 41 38 37 39 40 41 40
101 103 100 86 84 95 102 92 73 73 67 71 67 61 53 53 60 64 59 58 59 43 30 23 43 28 31 26 25 25 28 27 27 28 29 32 35 36
78 69 72 84 95 88 84 101 81 68 70 73 57 59 61 69 75 71 63 57 42 31 42 33 32 28 21 20 13 16 19 19 23 25 27 31 31 28
71 66 63 60 60 62 67 73 78 75 78 79 69 61 60 64 64 58 60 47 55 51 39 30 38 25 15 22 10 10 12 19 25 24 26 29 30 25
65 69 71 63 49 53 63 67 64 44 53 54 54 61 61 71 64 52 45 40 48 31 24 33 33 39 37 20 19 20 18 23 19 19 22 25 26 26
62 62 53 51 45 32 42 46 50 51 54 59 65 67 67 59 50 43 34 31 43 53 46 43 32 32 29 22 22 26 24 21 16 20 18 21 26 25
32 40 44 43 42 37 26 34 45 49 54 54 59 60 59 41 39 36 29 37 41 33 49 41 23 32 27 27 23 17 20 18 18 11 10 18 27 29
30 29 32 40 43 44 42 43 46 45 62 60 53 50 47 42 33 33 48 34 31 45 41 36 32 40 32 25 15 15 21 23 23 19 17 15 23 32
33 21 29 36 38 40 46 44 46 49 49 48 51 49 49 40 38 24 53 59 51 52 46 43 39 34 28 20 12 17 21 24 25 22 20 21 26 35
39 29 28 34 38 42 40 41 38 41 47 48 42 46 49 45 37 52 67 68 58 51 46 42 35 30 22 21 23 20 18 22 20 27 28 27 34 43
38 33 33 33 38 32 39 43 39 40 41 42 42 51 53 43 59 66 69 64 54 45 41 38 34 26 18 13 13 10 14 14 17 30 35 35 38 43
27 31 33 33 30 30 31 37 39 42 41 36 49 48 59 80 74 73 73 66 58 43 38 36 29 23 12 6 11 8 10 18 17 29 40 42 50 50
20 11 24 31 30 33 30 33 36 44 42 41 54 76 81 70 71 74 54 36 35 32 37 29 24 15 12 9 7 9 16 19 27 32 40 42 60 48
14 15 22 23 28 20 27 21 30 40 45 52 55 72 67 76 38 46 42 35 34 36 42 40 32 21 13 5 2 13 22 32 40 45 43 44 47 25
Wind_Direction_500mb
258 264 267 265 268 272 274 277 284 291 290 290 291 286 278 289 285 264 257 254 252 251 265 268 266 262 257 239 236 235 251 255 253 246 242 257 255 242
257 258 259 259 261 267 272 274 274 279 284 288 289 287 281 278 278 276 286 285 287 277 276 275 270 262 255 243 232 239 246 248 241 233 240 249 248 243
258 254 255 255 259 262 266 271 271 273 279 284 287 290 289 291 287 284 277 279 286 288 283 281 276 265 253 241 236 234 239 239 231 231 245 248 256 263
256 256 254 257 257 257 261 262 266 269 275 281 283 287 286 285 288 291 284 270 267 269 268 272 274 270 256 240 237 236 232 233 230 237 244 249 263 273
257 255 256 255 253 253 253 255 260 267 273 276 279 282 288 287 284 284 285 277 272 272 265 254 260 264 253 239 236 229 225 225 231 238 244 253 267 273
260 259 258 255 255 254 255 255 256 259 263 269 274 273 276 280 282 281 281 272 265 261 262 256 261 256 245 226 221 221 223 225 236 242 245 255 264 265
265 261 259 258 257 255 253 253 253 255 256 260 264 270 273 277 278 280 277 269 270 259 252 244 241 241 226 224 226 226 228 230 239 242 251 254 263 264
269 266 262 263 260 257 257 254 250 253 257 260 265 268 274 276 279 275 271 266 266 236 233 223 229 220 212 236 231 228 227 230 239 248 250 258 262 260
265 264 264 259 259 260 261 260 255 252 252 253 255 257 260 266 274 275 269 263 260 246 214 208 206 197 201 216 224 227 235 239 240 246 253 256 258 260
266 264 263 259 254 258 261 256 261 253 248 248 251 252 258 265 264 264 266 270 268 247 219 198 183 174 203 222 232 245 249 249 250 252 254 255 255 253
265 264 257 257 259 255 253 253 258 252 241 244 250 248 251 255 263 269 270 268 258 237 208 179 177 179 191 215 232 259 247 241 247 248 248 248 250 250
274 272 261 255 255 256 256 254 255 249 247 243 244 253 259 259 261 263 262 272 289 213 205 189 163 171 177 197 234 254 230 239 243 244 244 249 254 251
272 271 272 267 267 255 252 250 241 245 242 243 263 261 257 258 258 255 253 252 230 232 192 176 155 172 184 175 199 203 183 256 259 251 250 243 241 235
270 269 270 267 260 262 256 242 233 222 230 238 243 248 253 249 249 246 245 241 219 229 227 208 223 212 194 198 171 201 218 248 278 275 255 240 230 225
277 266 264 256 247 271 240 227 235 237 241 243 245 247 248 243 242 231 231 246 219 201 203 197 179 185 185 192 204 199 204 261 284 290 258 233 221 219
277 264 259 245 237 251 232 226 231 236 237 234 234 241 236 231 214 225 231 192 201 168 185 186 173 177 190 190 194 201 231 251 257 292 250 216 208 198
285 258 245 233 241 237 236 237 242 233 231 239 227 226 219 195 218 238 210 210 188 160 180 185 182 179 182 173 170 208 235 227 244 241 231 214 192 181
269 250 238 232 233 235 235 236 230 237 241 224 218 221 208 206 202 207 181 176 175 187 193 191 188 187 188 192 192 202 232 235 229 235 220 211 195 186
247 238 232 259 243 245 237 228 224 232 222 223 221 217 207 203 202 174 172 181 195 190 186 184 180 182 193 193 204 213 237 230 226 210 199 205 198 187
234 241 253 259 253 248 235 240 230 226 224 224 214 209 201 204 179 194 200 200 195 184 176 179 184 192 238 154 200 232 226 225 226 198 189 188 183 176
233 246 248 242 273 255 248 226 228 232 218 215 202 192 172 174 186 191 189 189 172 170 175 172 177 184 184 265 287 246 210 192 188 197 179 176 165 159
215 277 262 278 254 256 244 233 230 216 228 216 187 180 183 192 202 184 178 162 158 170 164 167 154 165 193 243 277 188 172 171 171 189 184 186 174 167
242 280 289 253 277 242 179 185 203 185 165 159 175 189 189 182 192 157 153 157 171 157 149 163 168 171 189 233 111 165 174 165 169 175 181 181 171 183
Wind_Speed_850mb
46 48 45 43 43 44 45 45 49 56 58 53 51 47 53 53 46 28 26 32 33 36 38 42 46 50 52 58 57 52 52 50 47 36 27 27 39 46
58 56 57 54 52 51 51 51 51 54 61 57 53 51 52 60 71 57 44 39 46 49 47 45 48 47 51 57 58 54 52 48 43 36 29 25 23 30
61 67 74 68 66 64 60 58 57 54 58 61 57 51 51 54 61 59 56 57 53 53 50 50 52 52 51 56 56 56 49 48 48 37 31 28 28 28
79 81 78 75 75 74 72 66 62 56 59 64 65 68 59 54 57 59 57 49 50 53 53 59 59 54 53 58 56 60 51 50 52 42 36 32 31 32
85 85 86 82 84 83 77 71 67 61 58 59 58 58 58 54 58 55 56 58 44 48 53 61 66 62 51 59 61 59 53 47 46 44 39 36 31 29
87 86 88 90 88 84 82 79 77 74 73 70 68 65 66 54 53 55 57 51 52 41 41 50 48 45 49 50 51 51 55 50 45 45 42 38 34 32
88 88 87 90 96 97 88 82 79 78 72 70 69 60 58 53 52 51 56 51 49 41 39 43 36 41 41 44 46 48 53 51 46 43 43 40 37 39
80 78 75 80 97 99 87 96 100 87 76 70 67 66 62 56 60 58 54 49 47 38 40 34 36 29 21 22 34 34 40 44 44 43 40 40 41 40
78 81 84 88 86 82 79 91 99 100 103 99 82 74 66 65 69 69 61 55 59 59 54 36 33 32 31 25 25 30 32 36 38 38 40 42 44 46
102 99 92 95 88 76 69 74 73 88 96 98 98 95 83 85 76 68 63 62 67 68 57 32 34 32 30 30 31 34 39 41 38 37 39 40 41 40
101 103 100 86 84 95 102 92 73 73 67 71 67 61 53 53 60 64 59 58 59 43 30 23 43 28 31 26 25 25 28 27 27 28 29 32 35 36
78 69 72 84 95 88 84 101 81 68 70 73 57 59 61 69 75 71 63 57 42 31 42 33 32 28 21 20 13 16 19 19 23 25 27 31 31 28
71 66 63 60 60 62 67 73 78 75 78 79 69 61 60 64 64 58 60 47 55 51 39 30 38 25 15 22 10 10 12 19 25 24 26 29 30 25
65 69 71 63 49 53 63 67 64 44 53 54 54 61 61 71 64 52 45 40 48 31 24 33 33 39 37 20 19 20 18 23 19 19 22 25 26 26
62 62 53 51 45 32 42 46 50 51 54 59 65 67 67 59 50 43 34 31 43 53 46 43 32 32 29 22 22 26 24 21 16 20 18 21 26 25
32 40 44 43 42 37 26 34 45 49 54 54 59 60 59 41 39 36 29 37 41 33 49 41 23 32 27 27 23 17 20 18 18 11 10 18 27 29
30 29 32 40 43 44 42 43 46 45 62 60 53 50 47 42 33 33 48 34 31 45 41 36 32 40 32 25 15 15 21 23 23 19 17 15 23 32
33 21 29 36 38 40 46 44 46 49 49 48 51 49 49 40 38 24 53 59 51 52 46 43 39 34 28 20 12 17 21 24 25 22 20 21 26 35
39 29 28 34 38 42 40 41 38 41 47 48 42 46 49 45 37 52 67 68 58 51 46 42 35 30 22 21 23 20 18 22 20 27 28 27 34 43
38 33 33 33 38 32 39 43 39 40 41 42 42 51 53 43 59 66 69 64 54 45 41 38 34 26 18 13 13 10 14 14 17 30 35 35 38 43
27 31 33 33 30 30 31 37 39 42 41 36 49 48 59 80 74 73 73 66 58 43 38 36 29 23 12 6 11 8 10 18 17 29 40 42 50 50
20 11 24 31 30 33 30 33 36 44 42 41 54 76 81 70 71 74 54 36 35 32 37 29 24 15 12 9 7 9 16 19 27 32 40 42 60 48
14 15 22 23 28 20 27 21 30 40 45 52 55 72 67 76 38 46 42 35 34 36 42 40 32 21 13 5 2 13 22 32 40 45 43 44 47 25
Wind_Direction_850mb
258 264 267 265 268 272 274 277 284 291 290 290 291 286 278 289 285 264 257 254 252 251 265 268 266 262 257 239 236 235 251 255 253 246 242 257 255 242
257 258 259 259 261 267 272 274 274 279 284 288 289 287 281 278 278 276 286 285 287 277 276 275 270 262 255 243 232 239 246 248 241 233 240 249 248 243
258 254 255 255 259 262 266 271 271 273 279 284 287 290 289 291 287 284 277 279 286 288 283 281 276 265 253 241 236 234 239 239 231 231 245 248 256 263
256 256 254 257 257 257 261 262 266 269 275 281 283 287 286 285 288 291 284 270 267 269 268 272 274 270 256 240 237 236 232 233 230 237 244 249 263 273
257 255 256 255 253 253 253 255 260 267 273 276 279 282 288 287 284 284 285 277 272 272 265 254 260 264 253 239 236 229 225 225 231 238 244 253 267 273
260 259 258 255 255 254 255 255 256 259 263 269 274 273 276 280 282 281 281 272 265 261 262 256 261 256 245 226 221 221 223 225 236 242 245 255 264 265
265 261 259 258 257 255 253 253 253 255 256 260 264 270 273 277 278 280 277 269 270 259 252 244 241 241 226 224 226 226 228 230 239 242 251 254 263 264
269 266 262 263 260 257 257 254 250 253 257 260 265 268 274 276 279 275 271 266 266 236 233 223 229 220 212 236 231 228 227 230 239 248 250 258 262 260
265 264 264 259 259 260 261 260 255 252 252 253 255 257 260 266 274 275 269 263 260 246 214 208 206 197 201 216 224 227 235 239 240 246 253 256 258 260
266 264 263 259 254 258 261 256 261 253 248 248 251 252 258 265 264 264 266 270 268 247 219 198 183 174 203 222 232 245 249 249 250 252 254 255 255 253
265 264 257 257 259 255 253 253 258 252 241 244 250 248 251 255 263 269 270 268 258 237 208 179 177 179 191 215 232 259 247 241 247 248 248 248 250 250
274 272 261 255 255 256 256 254 255 249 247 243 244 253 259 259 261 263 262 272 289 213 205 189 163 171 177 197 234 254 230 239 243 244 244 249 254 251
272 271 272 267 267 255 252 250 241 245 242 243 263 261 257 258 258 255 253 252 230 232 192 176 155 172 184 175 199 203 183 256 259 251 250 243 241 235
270 269 270 267 260 262 256 242 233 222 230 238 243 248 253 249 249 246 245 241 219 229 227 208 223 212 194 198 171 201 218 248 278 275 255 240 230 225
277 266 264 256 247 271 240 227 235 237 241 243 245 247 248 243 242 231 231 246 219 201 203 197 179 185 185 192 204 199 204 261 284 290 258 233 221 219
277 264 259 245 237 251 232 226 231 236 237 234 234 241 236 231 214 225 231 192 201 168 185 186 173 177 190 190 194 201 231 251 257 292 250 216 208 198
285 258 245 233 241 237 236 237 242 233 231 239 227 226 219 195 218 238 210 210 188 160 180 185 182 179 182 173 170 208 235 227 244 241 231 214 192 181
269 250 238 232 233 235 235 236 230 237 241 224 218 221 208 206 202 207 181 176 175 187 193 191 188 187 188 192 192 202 232 235 229 235 220 211 195 186
247 238 232 259 243 245 237 228 224 232 222 223 221 217 207 203 202 174 172 181 195 190 186 184 180 182 193 193 204 213 237 230 226 210 199 205 198 187
234 241 253 259 253 248 235 240 230 226 224 224 214 209 201 204 179 194 200 200 195 184 176 179 184 192 238 154 200 232 226 225 226 198 189 188 183 176
233 246 248 242 273 255 248 226 228 232 218 215 202 192 172 174 186 191 189 189 172 170 175 172 177 184 184 265 287 246 210 192 188 197 179 176 165 159
215 277 262 278 254 256 244 233 230 216 228 216 187 180 183 192 202 184 178 162 158 170 164 167 154 165 193 243 277 188 172 171 171 189 184 186 174 167
242 280 289 253 277 242 179 185 203 185 165 159 175 189 189 182 192 157 153 157 171 157 149 163 168 171 189 233 111 165 174 165 169 175 181 181 171 183